• In Uzbekistan
  • List of Countries
  • For 7 days
  • Water Temperature
  • Satellite Maps
  • Weather Map
  • Weather Widgets
  • user-avatar
    Login

    Hourly Weather Tashkent

    Today, 20 August, Monday

    Time Temperature Precipitation Wind Pressure Humidity
    00:00 +28°C° 0 mm 2 mps 716 mmHg 19%
    01:00 +28°C° 0 mm 2 mps 715 mmHg 19%
    02:00 +27°C° 0 mm 2 mps 715 mmHg 19%
    03:00 +27°C° 0 mm 2 mps 715 mmHg 19%
    04:00 +26°C° 0 mm 2 mps 715 mmHg 19%
    05:00 +27°C° 0 mm 2 mps 715 mmHg 18%
    06:00 +29°C° 0 mm 2 mps 715 mmHg 17%
    07:00 +30°C° 0 mm 2 mps 715 mmHg 16%
    08:00 +32°C° 0 mm 2 mps 716 mmHg 15%
    09:00 +35°C° 0 mm 3 mps 716 mmHg 14%
    10:00 +37°C° 0 mm 3 mps 716 mmHg 13%
    11:00 +41°C° 0 mm 4 mps 716 mmHg 12%
    12:00 +41°C° 0 mm 4 mps 716 mmHg 12%
    13:00 +42°C° 0 mm 4 mps 716 mmHg 12%
    14:00 +43°C° 0 mm 5 mps 716 mmHg 12%
    15:00 +42°C° 0 mm 6 mps 716 mmHg 13%
    16:00 +41°C° 0 mm 7 mps 716 mmHg 14%
    17:00 +41°C° 0 mm 8 mps 716 mmHg 15%
    18:00 +38°C° 0 mm 7 mps 717 mmHg 21%
    19:00 +34°C° 0 mm 6 mps 717 mmHg 26%
    20:00 +32°C° 0 mm 5 mps 718 mmHg 31%
    21:00 +29°C° 0.2 mm 4 mps 718 mmHg 37%
    22:00 +28°C° 0.2 mm 3 mps 719 mmHg 42%
    23:00 +27°C° 0.2 mm 3 mps 720 mmHg 47%

    Tomorrow, 21 August, Tuesday

    Time Temperature Precipitation Wind Pressure Humidity
    00:00 +26°C° 0.1 mm 3 mps 720 mmHg 49%
    01:00 +25°C° 0.1 mm 3 mps 720 mmHg 50%
    02:00 +23°C° 0.1 mm 4 mps 720 mmHg 52%
    03:00 +24°C° 0 mm 3 mps 720 mmHg 53%
    04:00 +22°C° 0 mm 3 mps 720 mmHg 55%
    05:00 +23°C° 0 mm 2 mps 720 mmHg 56%
    06:00 +24°C° 0 mm 3 mps 720 mmHg 52%
    07:00 +25°C° 0 mm 3 mps 721 mmHg 48%
    08:00 +26°C° 0 mm 3 mps 721 mmHg 44%
    09:00 +27°C° 0 mm 3 mps 721 mmHg 38%
    10:00 +28°C° 0 mm 3 mps 721 mmHg 33%
    11:00 +30°C° 0 mm 3 mps 721 mmHg 27%
    12:00 +30°C° 0 mm 4 mps 721 mmHg 25%
    13:00 +32°C° 0 mm 4 mps 721 mmHg 23%
    14:00 +33°C° 0 mm 4 mps 720 mmHg 20%
    15:00 +33°C° 0 mm 4 mps 720 mmHg 20%
    16:00 +32°C° 0 mm 5 mps 720 mmHg 20%
    17:00 +32°C° 0 mm 5 mps 720 mmHg 20%
    18:00 +29°C° 0 mm 5 mps 720 mmHg 21%
    19:00 +27°C° 0 mm 4 mps 720 mmHg 23%
    20:00 +25°C° 0 mm 3 mps 720 mmHg 25%
    21:00 +24°C° 0 mm 3 mps 720 mmHg 25%
    22:00 +22°C° 0 mm 3 mps 720 mmHg 25%
    23:00 +22°C° 0 mm 3 mps 720 mmHg 25%

    Day after tomorrow, 22 August, Wednesday

    Time Temperature Precipitation Wind Pressure Humidity
    00:00 +21°C° 0 mm 2 mps 720 mmHg 27%
    01:00 +20°C° 0 mm 2 mps 719 mmHg 28%
    02:00 +20°C° 0 mm 2 mps 719 mmHg 30%
    03:00 +19°C° 0 mm 2 mps 719 mmHg 31%
    04:00 +19°C° 0 mm 2 mps 719 mmHg 32%
    05:00 +20°C° 0 mm 1 mps 719 mmHg 33%
    06:00 +21°C° 0 mm 1 mps 719 mmHg 31%
    07:00 +23°C° 0 mm 1 mps 720 mmHg 28%
    08:00 +24°C° 0 mm 1 mps 720 mmHg 26%
    09:00 +26°C° 0 mm 2 mps 720 mmHg 24%
    10:00 +28°C° 0 mm 2 mps 720 mmHg 21%
    11:00 +30°C° 0 mm 3 mps 720 mmHg 19%
    12:00 +31°C° 0 mm 3 mps 720 mmHg 17%
    13:00 +33°C° 0 mm 3 mps 720 mmHg 16%
    14:00 +34°C° 0 mm 3 mps 719 mmHg 14%
    15:00 +34°C° 0 mm 3 mps 719 mmHg 13%
    16:00 +34°C° 0 mm 3 mps 719 mmHg 13%
    17:00 +34°C° 0 mm 4 mps 719 mmHg 13%
    18:00 +31°C° 0 mm 3 mps 719 mmHg 15%
    19:00 +29°C° 0 mm 3 mps 719 mmHg 18%
    20:00 +26°C° 0 mm 3 mps 719 mmHg 20%
    21:00 +26°C° 0 mm 3 mps 719 mmHg 22%
    22:00 +25°C° 0 mm 3 mps 719 mmHg 23%
    23:00 +24°C° 0 mm 3 mps 718 mmHg 24%

    23 August, Thursday

    Time Temperature Precipitation Wind Pressure Humidity
    00:00 +24°C° 0 mm 3 mps 718 mmHg 25%
    01:00 +23°C° 0 mm 2 mps 718 mmHg 25%
    02:00 +21°C° 0 mm 2 mps 718 mmHg 25%
    03:00 +21°C° 0 mm 2 mps 718 mmHg 26%
    04:00 +20°C° 0 mm 2 mps 718 mmHg 26%
    05:00 +21°C° 0 mm 1 mps 718 mmHg 27%
    06:00 +22°C° 0 mm 1 mps 718 mmHg 25%
    07:00 +24°C° 0 mm 1 mps 718 mmHg 24%
    08:00 +26°C° 0 mm 2 mps 719 mmHg 22%
    09:00 +27°C° 0 mm 2 mps 719 mmHg 20%
    10:00 +29°C° 0 mm 2 mps 719 mmHg 18%
    11:00 +31°C° 0 mm 2 mps 719 mmHg 16%
    12:00 +32°C° 0 mm 2 mps 718 mmHg 15%
    13:00 +34°C° 0 mm 2 mps 718 mmHg 14%
    14:00 +35°C° 0 mm 2 mps 718 mmHg 13%
    15:00 +35°C° 0 mm 2 mps 718 mmHg 13%
    16:00 +35°C° 0 mm 2 mps 718 mmHg 13%
    17:00 +35°C° 0 mm 2 mps 718 mmHg 13%
    18:00 +32°C° 0 mm 2 mps 718 mmHg 15%
    19:00 +30°C° 0 mm 2 mps 718 mmHg 17%
    20:00 +28°C° 0 mm 2 mps 718 mmHg 18%
    21:00 +27°C° 0 mm 2 mps 718 mmHg 20%
    22:00 +26°C° 0 mm 2 mps 718 mmHg 22%
    23:00 +25°C° 0 mm 2 mps 718 mmHg 24%

    24 August, Friday

    Time Temperature Precipitation Wind Pressure Humidity
    00:00 +25°C° 0 mm 2 mps 717 mmHg 25%
    01:00 +24°C° 0 mm 2 mps 717 mmHg 26%
    02:00 +23°C° 0 mm 2 mps 717 mmHg 27%
    03:00 +23°C° 0 mm 2 mps 717 mmHg 27%
    04:00 +21°C° 0 mm 2 mps 717 mmHg 27%
    05:00 +21°C° 0 mm 2 mps 718 mmHg 28%
    06:00 +23°C° 0 mm 2 mps 718 mmHg 25%
    07:00 +25°C° 0 mm 2 mps 718 mmHg 23%
    08:00 +26°C° 0 mm 2 mps 719 mmHg 21%
    09:00 +28°C° 0 mm 2 mps 719 mmHg 19%
    10:00 +30°C° 0 mm 2 mps 719 mmHg 17%
    11:00 +33°C° 0 mm 3 mps 719 mmHg 15%
    12:00 +34°C° 0 mm 3 mps 719 mmHg 14%
    13:00 +35°C° 0 mm 2 mps 719 mmHg 13%
    14:00 +36°C° 0 mm 2 mps 718 mmHg 12%
    15:00 +36°C° 0 mm 3 mps 718 mmHg 11%
    16:00 +36°C° 0 mm 3 mps 718 mmHg 11%
    17:00 +36°C° 0 mm 3 mps 718 mmHg 11%
    18:00 +33°C° 0 mm 3 mps 718 mmHg 13%
    19:00 +30°C° 0 mm 3 mps 718 mmHg 15%
    20:00 +28°C° 0 mm 3 mps 718 mmHg 17%
    21:00 +27°C° 0 mm 3 mps 717 mmHg 18%
    22:00 +26°C° 0 mm 3 mps 717 mmHg 19%
    23:00 +26°C° 0 mm 2 mps 717 mmHg 20%

    25 August, Saturday

    Time Temperature Precipitation Wind Pressure Humidity
    00:00 +25°C° 0 mm 2 mps 717 mmHg 21%
    01:00 +24°C° 0 mm 2 mps 717 mmHg 21%
    02:00 +24°C° 0 mm 2 mps 717 mmHg 22%
    03:00 +23°C° 0 mm 2 mps 717 mmHg 23%
    04:00 +23°C° 0 mm 2 mps 717 mmHg 23%
    05:00 +22°C° 0 mm 1 mps 717 mmHg 24%
    06:00 +24°C° 0 mm 1 mps 717 mmHg 22%
    07:00 +26°C° 0 mm 1 mps 718 mmHg 20%
    08:00 +27°C° 0 mm 1 mps 718 mmHg 18%
    09:00 +29°C° 0 mm 2 mps 718 mmHg 17%
    10:00 +31°C° 0 mm 2 mps 718 mmHg 16%
    11:00 +32°C° 0 mm 2 mps 718 mmHg 15%
    12:00 +34°C° 0 mm 3 mps 718 mmHg 14%
    13:00 +35°C° 0 mm 3 mps 717 mmHg 13%
    14:00 +35°C° 0 mm 4 mps 717 mmHg 13%
    15:00 +35°C° 0 mm 4 mps 717 mmHg 13%
    16:00 +35°C° 0 mm 4 mps 717 mmHg 13%
    17:00 +35°C° 0 mm 4 mps 717 mmHg 13%
    18:00 +33°C° 0 mm 3 mps 717 mmHg 16%
    19:00 +29°C° 0 mm 3 mps 717 mmHg 18%
    20:00 +27°C° 0 mm 2 mps 717 mmHg 21%
    21:00 +26°C° 0 mm 2 mps 716 mmHg 21%
    22:00 +26°C° 0 mm 3 mps 716 mmHg 22%
    23:00 +25°C° 0 mm 3 mps 716 mmHg 23%
    Show more